Flag for U.S.A. Weather past 2 weeks in Jersey City, New Jersey, U.S.A.

70 °F

Scattered clouds.

Feels Like: 75 °F
Forecast: 58 / 73 °F
Wind: 9 mph from West

Location: Newark International Airport

Current Time: Oct 13, 2015 at 7:25:36 PM

Latest Report: Oct 13, 2015 at 5:51 PM

Visibility: 10 mi

Pressure: 29.54 "Hg

Humidity: 64%

Dew point: 57 °F

Location of Jersey CityLocation

Historic Weather in Jersey City — Graph


Jersey City temperature yesterday

Maximum temperature yesterday: 77 °F (at 12:51 PM)
Minimum temperature yesterday: 50 °F (at 3:51 AM)
Average temperature yesterday: 63 °F

Past Weeks' High & Low Weather Summary

High81 °F (Sep 29, 12:51 PM)97% (Sep 30, 2:51 AM)30.35 "Hg (Sep 30, 2:51 AM)
Low47 °F (Oct 11, 6:51 AM)33% (Oct 12, 1:51 PM)29.52 "Hg (Oct 13, 2:51 PM)
Average62 °F71%30.02 "Hg
* Reported Sep 28 4:51 PM — Oct 13 4:51 PM, Jersey City, Weather by CustomWeather, © 2015

Note: Actual official high and low records may vary slightly from our data, if they occured in-between our weather recording intervals... More about our weather records


Jersey City weather history for previous 24 hours

Time TempWeatherWind HumidityBarometerVisibility
4:51 PM
Tue, Oct 13
71 °FScattered clouds.8 mph61%29.53 "Hg10 mi
3:51 PM72 °FPartly sunny.10 mph59%29.53 "Hg10 mi
2:51 PM71 °FBroken clouds.9 mph63%29.52 "Hg10 mi
1:51 PM68 °FMostly cloudy.9 mph70%29.53 "Hg10 mi
12:51 PM69 °FMostly cloudy.13 mph68%29.55 "Hg10 mi
12:04 PM70 °FPartly sunny.16 mph69%29.56 "Hg10 mi
11:00 AM70 °FPartly sunny.14 mph69%29.57 "Hg10 mi
9:51 AM67 °FBroken clouds.8 mph79%29.56 "Hg10 mi
8:51 AM64 °FPartly sunny.6 mph81%29.58 "Hg10 mi
7:51 AM63 °FPassing clouds.No wind84%29.58 "Hg10 mi
6:51 AM62 °FOvercast.No wind83%29.60 "Hg10 mi
5:51 AM62 °FMostly cloudy.No wind80%29.61 "Hg10 mi
4:51 AM60 °FMostly cloudy.No wind86%29.62 "Hg10 mi
3:51 AM60 °FPartly cloudy.3 mph83%29.63 "Hg10 mi
2:51 AM60 °FMostly cloudy.No wind86%29.65 "Hg10 mi
1:51 AM60 °FPartly cloudy.5 mph80%29.69 "Hg10 mi
12:51 AM60 °FPassing clouds.3 mph78%29.69 "Hg10 mi
11:51 PM
Mon, Oct 12
58 °FPassing clouds.5 mph78%29.71 "Hg10 mi
10:51 PM62 °FPassing clouds.5 mph73%29.72 "Hg10 mi
9:51 PM63 °FPassing clouds.6 mph70%29.72 "Hg10 mi
8:51 PM65 °FPassing clouds.7 mph66%29.74 "Hg10 mi
7:51 PM66 °FPassing clouds.5 mph65%29.75 "Hg10 mi
Weather by CustomWeather, © 2015

See weather overviewHow to use our weather pages